This demonstration page uses our WeatherBlox Daily Observations layout. Learn more.

Hourly Observations for November 5, 2016

Temp ( °F °C ) Dew Point ( °F °C ) Humidity (%) Winds ( mph kmh ) Pressure ( in mb ) Visibility ( mi km ) Precip ( " mm )
12:54 am 00:54 Clear 56 13.3 43 6.1 62 62 Calm 30.29 1026 10 16.0934 0 0
1:54 am 01:54 Clear 54 12.2 43 6.1 67 67 SE 3 6 30.29 1026 10 16.0934 0 0
2:54 am 02:54 Clear 52 11.1 43 6.1 72 72 SSE 5 7 30.3 1026 10 16.0934 0 0
3:54 am 03:54 Clear 48 8.9 42 5.6 80 80 SE 3 6 30.31 1026 10 16.0934 0 0
4:54 am 04:54 Clear 49 9.4 42 5.6 77 77 SSE 5 7 30.31 1026 10 16.0934 0 0
5:54 am 05:54 Clear 44 6.7 41 5 89 89 S 7 11 30.32 1027 10 16.0934 0 0
6:54 am 06:54 Clear 46 7.8 41 5 83 83 S 6 9 30.32 1027 10 16.0934 0 0
7:54 am 07:54 Clear 45 7.2 41 5 86 86 SSE 5 7 30.32 1027 10 16.0934 0 0
8:54 am 08:54 Sunny 46 7.8 42 5.6 86 86 S 5 7 30.34 1027 10 16.0934 0 0
9:54 am 09:54 Sunny 51 10.6 45 7.2 80 80 S 3 6 30.34 1028 10 16.0934 0 0
10:54 am 10:54 Sunny 61 16.1 46 7.8 58 58 SSW 9 15 30.33 1027 10 16.0934 0 0
11:54 am 11:54 Sunny 67 19.4 44 6.7 44 44 SSW 10 17 30.31 1027 10 16.0934 0 0
12:54 pm 12:54 Sunny 70 21.1 43 6.1 38 38 SW 10 17 30.28 1025 10 16.0934 0 0
1:54 pm 13:54 Sunny 71 21.7 44 6.7 38 38 undefined N/A 30.25 1024 10 16.0934 0 0
2:54 pm 14:54 Sunny 73 22.8 42 5.6 33 33 SSW 15 24 30.23 1024 10 16.0934 0 0
3:54 pm 15:54 Sunny 73 22.8 42 5.6 33 33 SSW 10 17 30.22 1023 10 16.0934 0 0
4:54 pm 16:54 Sunny 70 21.1 43 6.1 38 38 S 12 19 30.21 1023 10 16.0934 0 0
5:54 pm 17:54 Sunny 64 17.8 41 5 43 43 S 9 15 30.22 1023 10 16.0934 0 0
6:54 pm 18:54 Clear 62 16.7 41 5 46 46 SE 6 9 30.23 1024 10 16.0934 0 0
7:54 pm 19:54 Clear 55 12.8 42 5.6 62 62 SSE 8 13 30.25 1024 10 16.0934 0 0
8:54 pm 20:54 Clear 53 11.7 44 6.7 72 72 SSE 9 15 30.24 1024 10 16.0934 0 0
9:54 pm 21:54 Clear 51 10.6 44 6.7 77 77 S 8 13 30.24 1024 10 16.0934 0 0
10:54 pm 22:54 Clear 51 10.6 44 6.7 77 77 S 10 17 30.25 1024 10 16.0934 0 0
11:54 pm 23:54 Clear 51 10.6 43 6.1 74 74 S 8 13 30.24 1024 10 16.0934 0 0

Powered by AerisWeather